Location: Capelle
(50.3413°N, 1.9974°E)
Time: 22:46:36
(UTC+00:00)

BREEZE-M DEB (TANK) - Pass Details

Date: 12 January 2026
Orbit: 273 x 16134 km, 49.5° (Epoch: 7 February)

Event Time Altitude Azimuth Distance (km) Brightness Sun altitude
Rises 18:15:38 0° 227° (SW) 2,224 6.4 -18.8°
Reaches altitude 10° 18:16:58 10° 220° (SW) 1,617 5.4 -19.0°
Maximum altitude 18:20:01 47° 144° (SE) 1,018 3.4 -19.5°
Enters shadow 18:22:26 32° 91° (E) 1,812 4.3 -19.9°
